COSMOS 1375 DEB

Satellite information

Favourite Embed

Satellite Type and Status

DEBRISIN ORBIT

Key statistics

Satellite COSMOS 1375 DEB at a glance.

Uptime

15738

Days in orbit

Revolutions

≈ 13.8

Per day

Orbit

LEO

Low Earth Orbit

Inclination

65.8

Latest

Satellite identification and parameters

Extended collection of information and parameters for COSMOS 1375 DEB.

Object identification

Identified? True

Debris? True

Object name: COSMOS 1375 DEB

International designator: 1982-055K

Object number (NORAD): 16208

Object ID (CCSDS): 16208

Country: COMMONWEALTH OF INDEPENDENT STATES (CIS)

Current information (Y/N): Y

RCS size: MEDIUM

Orbital parameters

Period: 104.639 minutes

Inclination: 65.8344 deg

SMA: 7355.692 km

Apoapsis: 1004.706 km

Periapsis: 950.409 km

RAAN: 118.1073 deg

Eccentricy: 0.0036908

Argument of periapsis: 33.212 deg

Mean anomaly: 28.0445 deg

Mean motion: 13.76155288 rev/day

Mean motion (dot): -0.00000072 rev/day2

B* drag term: 0.0000088854 1/REarth

Two-line elements (TLE)

Creation date: July 8, 2025, 2:27 a.m.

Reference frame: TEME

Reference center: EARTH

Epoch: July 7, 2025, 9:42 p.m. UTC

TLE line 0: 0 COSMOS 1375 DEB

TLE line 1: 1 16208U 82055K 25188.90471616 -.00000072 00000-0 88854-5 0 9993

TLE line 2: 2 16208 65.8344 118.1073 0036908 33.2120 28.0445 13.76155288994806

Live tracking on map

Real-time ground track for satellite COSMOS 1375 DEB.

In-orbit conjunctions

A list of the most updated potential collisions computed for object COSMOS 1375 DEB.

Target Orbit TCA Probability of collision Miss distance Type
FENGYUN 1C DEB SSO 2024-12-26 06:33:47 0.0001135207 452.0 (m) DEBRIS

Associated space launch

ASAT target satellite

COSMOS 1375 DEB was lifted into orbit during the mission ‘Kosmos-3M | DS-P1-M 16’, on board a Kosmos-3M space rocket.

The launch took place on June 6, 1982, 5:10 p.m. from 132/2.

For more information about the launch, click the button.

Launch to space Kosmos-3M | DS-P1-M 16
Kosmos-3M | DS-P1-M 16

Agency: N/A

Status: Launch Successful

Launch date: June 6, 1982, 5:10 p.m. UTC

Rocket: Kosmos-3M

Launch pad: 132/2

Location: Plesetsk Cosmodrome, Russian Federation

...

Latest news about this satellite

There are no fresh news available about this satellite. Check back as we update our databases every day.


Newsletter sign-up

Weekly statistics, charts and insights to help you stay on top of the space industry.